Showing default

SOLRAD 7B, 1291

Orbit data source: Space-Track

SOLRAD 7B, 1291 is an American payload satellite in LEO that was launched on Tue, 09 Mar 1965 UTC via a THOR SLV-2 AGENA D launch vehicle from the Air Force Western Test Range (AFWTR). Payload-class satellites include a variety of spacecraft equipped with specific instruments for various scientific and technological missions. These include communications satellites like Starlink; space stations such as the ISS; scientific satellites like the Hubble; Earth observation satellites from companies like Planet Labs, Umbra, and HawkEye 360; GPS; miniature CubeSats for education and research; and military/defense satellites.

Loading next visibility...
Identifier
1291, 1965-016D
Orbit
LEO
Country
Flag of USUS
Related business
Manufacturer
NRL
Mission
Spacecraft
Bus & Motor
NRL 24", Unknown motor
Mass
47 kg wet, 47 kg dry
Launch date (UTC)
1965-03-09 (61 years ago)
Launch vehicle
THOR SLV-2 AGENA D
Launch site
Air Force Western Test Range (AFWTR)
Object type
Payload
Rocket body
Debris
Shape & HBR
Unknown
Radar Cross Section
Medium (>0.1 m² and <1 m²)

Expand to show TLE details & history
Last TLE update: 8 hours ago

TLE from 8 hours ago
0 SOLRAD 7B
1 01291U 65016D   25346.96456060  .00000055  00000-0  79814-4 0  9990
2 01291  70.0796 272.1688 0020938 357.4151   2.6843 13.94946890 90731
Epoch: 2025-12-12T23:08Z
TLE epoch observation values (Epoch: 2025-12-12T23:08:58.035Z)
Latitude
-0.00003°
Longitude
-156.97165°
Altitude
898.414 km
Speed
7.411 km/s
True Right ascension
18h 08m 40s
True Declination
0° 00' 00"
Sunlit
Object was in daylight at epoch
Visualization orbit readout
Latitude
Unknown
Longitude
Unknown
Altitude
Unknown
Speed
Unknown
Apparent Right ascension
Unknown
Apparent Declination
Unknown
Sunlit
N/A
Visualization observer readout
Local Sidereal Time
05:21:37
Azimuth
Unknown
Elevation
Unknown
Doppler factor
Unknown
Orbital elements
Apogee altitude
924.641 km
Perigee altitude
894.123 km
Semi-major axis
7,287.519 km
Eccentricity
0.00209
Inclination
70.0796°
RAAN
272.1688°
Arg. of periapsis
357.4151°
True anomaly
2.69557°
Mean anomaly
2.6843°
Eccentric anomaly
2.68993°
Mean motion
3.48878 °/min
Orbital period
103.19 mins
BSTAR
0.000079814
Loading maneuver chart data...
Computing Atmospheric mass density...
Loading historical data...
Loading historical data...
Loading historical data...
Loading historical data...
Loading historical data...
Loading historical data...
Loading historical data...

Documentation

Showing up to 5 results
|